Content
SEND FEEDBACK

The Bahamas Flag

NASSAU, THE BAHAMAS


Home > Caribbean > The Bahamas
Elevation: 23 feet     Latitude: 25 03N     Longitude: 077 28W

WEATHER
 
SELECT A DAY
Number of Records: 177,276;   Date Range: 6/30/96 - 3/22/16
 
SHARE

PRINT THIS DATA

[ ← Previous Day ]
WEATHER ALMANAC - JANUARY 19, 2013
[ Next Day → ]
[ °C ]   °F
Weather ElementAverageHighLow
Temperature72.8 °F78.8 °F (1:00 pm)68 °F (7:00 am)
Dewpoint66.9 °F69 °F (1:00 pm)64.4 °F (10:00 am)
Humidity81 %100 % (7:00 am)66 % (1:00 pm)
Barometer30.13 in30.20 in (10:00 am)30.09 in (2:00 pm)
Wind Speed3.9 mph11.5 mph (11:00 am)
Weather ElementAverage
Visibility6.9 mi
Wind DirectionNNE (36.4 °)

Weather ElementTotal
Precipitation---
Cooling Degree Days8.4 (Base 65)
Growing Degree Days23.4 (Base 50)
Averaged from 30 records on January 19, 2013
WEATHER CONDITIONS BREAKOUT
WIND DIRECTION BREAKOUT
WEATHER BY HOUR - JANUARY 19, 2013
[ °C ]   °F
Local TimeTemperatureDewpointHumidityBarometerVisibilityWind DirectionWind SpeedGust SpeedPrecipitationEventsConditions
1:00 AM71.0 °F67.0 °F85 %30.16 in9.0 miNNE (20°)4.6 mphMostly Cloudy
1:00 AM71.6 °F68.0 °F88 %30.15 in6.2 miNNE (20°)4.6 mphMostly Cloudy
2:00 AM69.8 °F66.2 °F88 %30.13 in6.2 miNNE (20°)4.6 mphMostly Cloudy
3:00 AM69.8 °F66.2 °F88 %30.12 in6.2 miVariable2.3 mphMostly Cloudy
4:00 AM70.0 °F67.0 °F87 %30.12 in9.0 miNNE (20°)3.5 mphPartly Cloudy
4:00 AM69.8 °F66.2 °F88 %30.11 in6.2 miNNE (20°)3.5 mphScattered Clouds
5:00 AM69.8 °F66.2 °F88 %30.13 in6.2 miNNE (20°)2.3 mphMostly Cloudy
6:00 AM69.8 °F66.2 °F88 %30.14 in6.2 miCalmMostly Cloudy
7:00 AM68.0 °F68.0 °F100 %30.15 in6.2 miCalmMostly Cloudy
7:00 AM69.0 °F67.0 °F92 %30.15 in9.0 miCalmPartly Cloudy
8:00 AM71.6 °F68.0 °F88 %30.16 in6.2 miVariable2.3 mphMostly Cloudy
9:00 AM75.2 °F68.0 °F78 %30.18 in6.2 miNNE (20°)5.8 mphMostly Cloudy
10:00 AM75.2 °F64.4 °F69 %30.20 in6.2 miNNE (20°)9.2 mphScattered Clouds
11:00 AM77.0 °F66.2 °F69 %30.19 in6.2 miNNE (30°)11.5 mphScattered Clouds
12:00 PM77.0 °F66.2 °F69 %30.15 in6.2 miNNE (20°)8.1 mphScattered Clouds
1:00 PM78.8 °F68.0 °F69 %30.12 in6.2 miNE (50°)8.1 mphScattered Clouds
1:00 PM78.0 °F69.0 °F66 %30.12 in9.0 miNE (50°)8.1 mphPartly Cloudy
2:00 PM77.0 °F68.0 °F74 %30.09 in6.2 miNorth (360°)8.1 mphScattered Clouds
3:00 PM75.2 °F66.2 °F73 %30.09 in6.2 miNE (50°)6.9 mphScattered Clouds
4:00 PM77.0 °F68.0 °F67 %30.09 in9.0 miNE (50°)4.6 mphScattered Clouds
4:00 PM77.0 °F68.0 °F74 %30.09 in6.2 miNE (50°)4.6 mphScattered Clouds
5:00 PM75.2 °F66.2 °F73 %30.10 in6.2 miNE (50°)4.6 mphScattered Clouds
6:00 PM73.4 °F66.2 °F78 %30.11 in6.2 miNE (50°)4.6 mphScattered Clouds
7:00 PM73.4 °F68.0 °F83 %30.11 in6.2 miNE (50°)2.3 mphScattered Clouds
7:00 PM73.0 °F67.0 °F77 %9.0 miNE (50°)2.3 mphScattered Clouds
8:00 PM71.6 °F66.2 °F83 %30.12 inCalmClear
9:00 PM71.6 °F66.2 °F83 %30.14 inCalmPartly Cloudy
10:00 PM70.0 °F67.0 °F88 %30.13 in9.0 miCalmScattered Clouds
10:00 PM69.8 °F68.0 °F94 %30.13 in6.2 miCalmPartly Cloudy
11:00 PM69.8 °F64.4 °F83 %30.11 in6.2 miCalmPartly Cloudy
Hourly data recorded from MYNN, located miles away from Nassau, The Bahamas




STORIES FROM OUR PARTNERS